WMT1395 LIPY-LATI

Flight info

Callsign WMT1395
Flight time 0h 56m
Altitude 35000
Route MASEG DCT NUTRO DCT ARSOB DCT ERPOG DCT GARGA DCT VAKSU DCT PETAK
Aircraft A321/M-SDE3FGHIRWY/LB1

Departure

Time 2026-04-21 15:21
Airport Marche Airport (LIPY)

Arrival

Time 2026-04-21 16:18
Airport Tirana International Airport Mother Teresa (LATI)
Time Latitude Longitude Altitude Speed Heading
2026-04-21 14:52 43.60785 13.35504 46 ft 0 kts 164°
2026-04-21 15:16 43.60783 13.35504 46 ft 0 kts 164°
2026-04-21 15:17 43.60778 13.35501 46 ft 0 kts 225°
2026-04-21 15:17 43.60779 13.35494 46 ft 1 kts 296°
2026-04-21 15:17 43.60795 13.35469 46 ft 4 kts 313°
2026-04-21 15:17 43.60808 13.35428 46 ft 5 kts 258°
2026-04-21 15:18 43.60785 13.35387 46 ft 6 kts 220°
2026-04-21 15:18 43.60753 13.35345 47 ft 6 kts 224°
2026-04-21 15:18 43.60717 13.35297 47 ft 7 kts 230°
2026-04-21 15:18 43.60717 13.35229 48 ft 8 kts 298°
2026-04-21 15:19 43.60732 13.35203 48 ft 0 kts 315°
2026-04-21 15:19 43.60738 13.35194 48 ft 2 kts 315°
2026-04-21 15:19 43.60753 13.35175 48 ft 3 kts 315°
2026-04-21 15:19 43.60775 13.35144 48 ft 5 kts 315°
2026-04-21 15:20 43.60807 13.35115 48 ft 5 kts
2026-04-21 15:20 43.60847 13.35147 47 ft 7 kts 43°
2026-04-21 15:20 43.60894 13.35215 47 ft 18 kts 45°
2026-04-21 15:20 43.61124 13.35530 44 ft 82 kts 45°
2026-04-21 15:21 43.61698 13.36317 37 ft 148 kts 45°
2026-04-21 15:21 43.62488 13.37414 448 ft 163 kts 44°
2026-04-21 15:21 43.63295 13.38521 1148 ft 163 kts 45°
2026-04-21 15:21 43.64065 13.39580 1844 ft 157 kts 45°
2026-04-21 15:22 43.64859 13.40670 2159 ft 166 kts 45°
2026-04-21 15:22 43.65701 13.41825 2428 ft 179 kts 45°
2026-04-21 15:22 43.66559 13.43144 2684 ft 193 kts 58°
2026-04-21 15:22 43.66797 13.45011 2909 ft 209 kts 98°
2026-04-21 15:23 43.66224 13.46905 3347 ft 219 kts 115°
2026-04-21 15:23 43.65550 13.48795 3806 ft 219 kts 114°
2026-04-21 15:23 43.64897 13.50699 4200 ft 224 kts 113°
2026-04-21 15:23 43.64247 13.52623 4887 ft 224 kts 114°
2026-04-21 15:24 43.63331 13.54368 5510 ft 230 kts 142°
2026-04-21 15:24 43.61848 13.55200 6073 ft 237 kts 175°
2026-04-21 15:24 43.60182 13.54953 6486 ft 252 kts 193°
2026-04-21 15:24 43.58414 13.54432 7066 ft 261 kts 193°
2026-04-21 15:25 43.56640 13.53941 7825 ft 263 kts 192°
2026-04-21 15:25 43.54835 13.53631 8546 ft 267 kts 177°
2026-04-21 15:25 43.53076 13.54451 9247 ft 274 kts 147°
2026-04-21 15:25 43.51722 13.56351 9708 ft 290 kts 128°
2026-04-21 15:26 43.50481 13.58637 10139 ft 304 kts 127°
2026-04-21 15:26 43.49185 13.61014 10516 ft 320 kts 128°
2026-04-21 15:26 43.47801 13.63499 10868 ft 335 kts 128°
2026-04-21 15:26 43.46354 13.66059 11492 ft 341 kts 130°
2026-04-21 15:27 43.44888 13.68635 12196 ft 344 kts 130°
2026-04-21 15:27 43.43404 13.71234 12812 ft 349 kts 129°
2026-04-21 15:27 43.41915 13.73837 13431 ft 353 kts 129°
2026-04-21 15:27 43.40336 13.76452 14044 ft 357 kts 132°
2026-04-21 15:28 43.38698 13.79064 14633 ft 362 kts 132°
2026-04-21 15:28 43.37049 13.81680 15193 ft 367 kts 133°
2026-04-21 15:28 43.35386 13.84314 15737 ft 371 kts 133°
2026-04-21 15:28 43.33692 13.86999 16308 ft 375 kts 133°
2026-04-21 15:29 43.31968 13.89728 16873 ft 379 kts 133°
2026-04-21 15:29 43.30240 13.92460 17422 ft 384 kts 133°
2026-04-21 15:29 43.28484 13.95236 17961 ft 387 kts 133°
2026-04-21 15:29 43.26733 13.98005 18518 ft 390 kts 133°
2026-04-21 15:30 43.24937 14.00842 19032 ft 394 kts 133°
2026-04-21 15:30 43.23134 14.03685 19516 ft 398 kts 133°
2026-04-21 15:30 43.21324 14.06539 20005 ft 402 kts 133°
2026-04-21 15:30 43.19474 14.09452 20482 ft 407 kts 134°
2026-04-21 15:31 43.17606 14.12389 20940 ft 411 kts 133°
2026-04-21 15:31 43.15742 14.15317 21424 ft 414 kts 133°
2026-04-21 15:31 43.13848 14.18288 21868 ft 418 kts 133°
2026-04-21 15:31 43.11908 14.21328 22318 ft 422 kts 133°
2026-04-21 15:32 43.10000 14.24319 22743 ft 425 kts 133°
2026-04-21 15:32 43.08052 14.27372 23188 ft 429 kts 133°
2026-04-21 15:32 43.06074 14.30470 23617 ft 432 kts 133°
2026-04-21 15:32 43.04089 14.33575 24034 ft 435 kts 133°
2026-04-21 15:33 43.02095 14.36689 24457 ft 439 kts 133°
2026-04-21 15:33 43.00089 14.39823 24850 ft 442 kts 133°
2026-04-21 15:33 42.98071 14.42969 25240 ft 445 kts 133°
2026-04-21 15:33 42.96034 14.46145 25640 ft 448 kts 134°
2026-04-21 15:34 42.93972 14.49352 26018 ft 451 kts 133°
2026-04-21 15:34 42.91885 14.52594 26405 ft 454 kts 133°
2026-04-21 15:34 42.89800 14.55831 26780 ft 457 kts 133°
2026-04-21 15:34 42.87720 14.59056 27135 ft 459 kts 133°
2026-04-21 15:35 42.85592 14.62353 27486 ft 462 kts 133°
2026-04-21 15:35 42.83467 14.65641 27831 ft 465 kts 134°
2026-04-21 15:35 42.81333 14.68943 28168 ft 467 kts 134°
2026-04-21 15:35 42.79185 14.72259 28506 ft 469 kts 134°
2026-04-21 15:36 42.77025 14.75594 28835 ft 471 kts 134°
2026-04-21 15:36 42.74874 14.78906 29143 ft 473 kts 134°
2026-04-21 15:36 42.72697 14.82260 29441 ft 475 kts 134°
2026-04-21 15:36 42.70514 14.85616 29724 ft 478 kts 134°
2026-04-21 15:37 42.68299 14.89018 29999 ft 480 kts 134°
2026-04-21 15:37 42.66068 14.92433 30300 ft 482 kts 134°
2026-04-21 15:37 42.63846 14.95834 30578 ft 484 kts 134°
2026-04-21 15:37 42.61633 14.99218 30847 ft 486 kts 134°
2026-04-21 15:38 42.59367 15.02679 31132 ft 488 kts 134°
2026-04-21 15:38 42.57139 15.06084 31497 ft 487 kts 134°
2026-04-21 15:38 42.54900 15.09499 31895 ft 485 kts 134°
2026-04-21 15:38 42.52668 15.12959 32276 ft 485 kts 131°
2026-04-21 15:39 42.50627 15.16562 32640 ft 485 kts 126°
2026-04-21 15:39 42.48806 15.20370 32997 ft 484 kts 121°
2026-04-21 15:39 42.47218 15.24395 33330 ft 484 kts 115°
2026-04-21 15:39 42.45901 15.28534 33607 ft 484 kts 110°
2026-04-21 15:40 42.44819 15.32851 33855 ft 485 kts 105°
2026-04-21 15:40 42.43850 15.37184 34088 ft 486 kts 105°
2026-04-21 15:40 42.42891 15.41543 34327 ft 487 kts 105°
2026-04-21 15:40 42.41911 15.45954 34579 ft 487 kts 105°
2026-04-21 15:41 42.40923 15.50333 34805 ft 488 kts 105°
2026-04-21 15:41 42.39928 15.54703 34914 ft 490 kts 105°
2026-04-21 15:41 42.37910 15.63481 34919 ft 490 kts 105°
2026-04-21 15:42 42.35884 15.72241 34922 ft 490 kts 106°
2026-04-21 15:42 42.33846 15.81003 34920 ft 490 kts 106°
2026-04-21 15:43 42.31813 15.89731 34919 ft 490 kts 106°
2026-04-21 15:43 42.29765 15.98482 34917 ft 490 kts 106°
2026-04-21 15:44 42.27726 16.07223 34915 ft 489 kts 104°
2026-04-21 15:44 42.26215 16.16074 34913 ft 486 kts 97°
2026-04-21 15:45 42.25325 16.25120 34913 ft 485 kts 94°
2026-04-21 15:45 42.24498 16.34131 34909 ft 486 kts 94°
2026-04-21 15:46 42.23644 16.43130 34916 ft 486 kts 95°
2026-04-21 15:46 42.22773 16.52145 34912 ft 486 kts 95°
2026-04-21 15:47 42.21891 16.61157 34906 ft 486 kts 95°
2026-04-21 15:47 42.21005 16.70141 34909 ft 486 kts 96°
2026-04-21 15:48 42.20109 16.79142 34913 ft 486 kts 95°
2026-04-21 15:48 42.19208 16.88121 34911 ft 485 kts 96°
2026-04-21 15:49 42.18296 16.97127 34911 ft 485 kts 96°
2026-04-21 15:49 42.17386 17.06060 34915 ft 485 kts 95°
2026-04-21 15:50 42.16464 17.15017 34913 ft 484 kts 95°
2026-04-21 15:50 42.15538 17.23960 34909 ft 485 kts 96°
2026-04-21 15:51 42.15488 17.24440 34910 ft 485 kts 95°
2026-04-21 15:55 42.15476 17.24564 34910 ft 485 kts 95°
2026-04-21 15:56 42.14544 17.33488 34914 ft 484 kts 95°
2026-04-21 15:56 42.13603 17.42448 34911 ft 484 kts 96°
2026-04-21 15:57 42.12654 17.51381 34229 ft 484 kts 96°
2026-04-21 15:57 42.12171 17.55918 33127 ft 495 kts 95°
2026-04-21 15:57 42.11684 17.60468 32159 ft 502 kts 95°
2026-04-21 15:58 42.11184 17.65125 31337 ft 504 kts 96°
2026-04-21 15:58 42.10683 17.69770 30564 ft 505 kts 96°
2026-04-21 15:58 42.10175 17.74451 29953 ft 501 kts 96°
2026-04-21 15:58 42.09677 17.79023 29475 ft 495 kts 96°
2026-04-21 15:59 42.09347 17.82047 29134 ft 491 kts 96°
2026-04-21 15:59 42.08682 17.88114 28403 ft 485 kts 96°
2026-04-21 15:59 42.08192 17.92578 27831 ft 482 kts 96°
2026-04-21 15:59 42.07708 17.96973 27291 ft 477 kts 97°
2026-04-21 16:00 42.07219 18.01368 26736 ft 473 kts 97°
2026-04-21 16:00 42.06738 18.05704 26198 ft 470 kts 97°
2026-04-21 16:00 42.06257 18.10022 25650 ft 466 kts 96°
2026-04-21 16:00 42.05781 18.14265 25121 ft 462 kts 96°
2026-04-21 16:01 42.05304 18.18523 24582 ft 458 kts 97°
2026-04-21 16:01 42.04833 18.22731 24044 ft 455 kts 97°
2026-04-21 16:01 42.04362 18.26900 23500 ft 451 kts 97°
2026-04-21 16:01 42.03894 18.31021 22983 ft 448 kts 97°
2026-04-21 16:02 42.03427 18.35132 22488 ft 444 kts 97°
2026-04-21 16:02 42.02964 18.39196 22011 ft 439 kts 97°
2026-04-21 16:02 42.02504 18.43232 21527 ft 436 kts 97°
2026-04-21 16:02 42.02041 18.47247 21053 ft 432 kts 97°
2026-04-21 16:03 42.01521 18.51174 20572 ft 429 kts 101°
2026-04-21 16:03 42.00730 18.54978 20121 ft 425 kts 108°
2026-04-21 16:03 41.99688 18.58679 19672 ft 421 kts 111°
2026-04-21 16:03 41.98583 18.62324 19224 ft 418 kts 112°
2026-04-21 16:04 41.97490 18.65879 18768 ft 414 kts 113°
2026-04-21 16:04 41.96397 18.69457 18300 ft 411 kts 112°
2026-04-21 16:04 41.95316 18.73008 17859 ft 408 kts 112°
2026-04-21 16:04 41.94269 18.76465 17416 ft 405 kts 112°
2026-04-21 16:05 41.93209 18.79962 16974 ft 401 kts 112°
2026-04-21 16:05 41.92166 18.83410 16534 ft 398 kts 112°
2026-04-21 16:05 41.91128 18.86836 16101 ft 395 kts 112°
2026-04-21 16:05 41.90103 18.90219 15669 ft 392 kts 112°
2026-04-21 16:06 41.89080 18.93591 15238 ft 389 kts 113°
2026-04-21 16:06 41.88067 18.96928 14793 ft 386 kts 113°
2026-04-21 16:06 41.87052 19.00267 14363 ft 383 kts 113°
2026-04-21 16:06 41.86058 19.03526 13920 ft 381 kts 113°
2026-04-21 16:07 41.85060 19.06797 13482 ft 378 kts 113°
2026-04-21 16:07 41.84072 19.10037 13055 ft 375 kts 113°
2026-04-21 16:07 41.83086 19.13264 12629 ft 372 kts 113°
2026-04-21 16:07 41.82111 19.16454 12220 ft 369 kts 113°
2026-04-21 16:08 41.80210 19.22659 11919 ft 347 kts 113°
2026-04-21 16:08 41.79308 19.25600 11920 ft 331 kts 113°
2026-04-21 16:08 41.78456 19.28376 11919 ft 317 kts 113°
2026-04-21 16:09 41.77582 19.31013 11909 ft 301 kts 121°
2026-04-21 16:09 41.76445 19.33275 11823 ft 289 kts 131°
2026-04-21 16:09 41.75176 19.35327 11591 ft 284 kts 133°
2026-04-21 16:09 41.73891 19.37318 11349 ft 280 kts 134°
2026-04-21 16:10 41.72628 19.39280 11085 ft 277 kts 134°
2026-04-21 16:10 41.71393 19.41218 10783 ft 275 kts 133°
2026-04-21 16:10 41.70150 19.43183 10482 ft 274 kts 133°
2026-04-21 16:10 41.68937 19.45110 10176 ft 273 kts 133°
2026-04-21 16:11 41.67728 19.47034 9895 ft 271 kts 133°
2026-04-21 16:11 41.66518 19.48960 9607 ft 268 kts 133°
2026-04-21 16:11 41.65308 19.50884 9055 ft 272 kts 133°
2026-04-21 16:11 41.64110 19.52861 8413 ft 278 kts 124°
2026-04-21 16:12 41.63588 19.54430 8048 ft 280 kts 101°
2026-04-21 16:12 41.63667 19.57824 7472 ft 273 kts 79°
2026-04-21 16:12 41.64006 19.60279 7022 ft 269 kts 79°
2026-04-21 16:12 41.64310 19.62730 6571 ft 265 kts 81°
2026-04-21 16:13 41.64549 19.65133 6140 ft 262 kts 83°
2026-04-21 16:13 41.64605 19.67525 5688 ft 258 kts 103°
2026-04-21 16:13 41.63776 19.69567 5191 ft 252 kts 141°
2026-04-21 16:13 41.62217 19.70503 4732 ft 244 kts 178°
2026-04-21 16:14 41.60569 19.70297 4270 ft 241 kts 192°
2026-04-21 16:14 41.58916 19.69971 3871 ft 239 kts 185°
2026-04-21 16:14 41.57267 19.69955 3558 ft 233 kts 177°
2026-04-21 16:14 41.55683 19.70133 3252 ft 224 kts 175°
2026-04-21 16:15 41.54166 19.70358 2808 ft 213 kts 174°
2026-04-21 16:15 41.52729 19.70566 2316 ft 208 kts 174°
2026-04-21 16:15 41.51296 19.70758 1845 ft 204 kts 174°
2026-04-21 16:15 41.49934 19.70935 1577 ft 191 kts 174°
2026-04-21 16:16 41.48636 19.71106 1305 ft 181 kts 174°
2026-04-21 16:16 41.47423 19.71267 1049 ft 169 kts 173°
2026-04-21 16:16 41.46297 19.71416 821 ft 156 kts 173°
2026-04-21 16:16 41.45259 19.71553 629 ft 149 kts 173°
2026-04-21 16:17 41.44327 19.71677 467 ft 147 kts 173°
2026-04-21 16:17 41.43314 19.71813 273 ft 147 kts 173°
2026-04-21 16:17 41.42300 19.71946 121 ft 143 kts 172°
2026-04-21 16:17 41.41512 19.72051 125 ft 72 kts 175°
2026-04-21 16:18 41.41051 19.72112 129 ft 53 kts 175°
2026-04-21 16:18 41.40822 19.72143 130 ft 27 kts 174°
2026-04-21 16:18 41.40712 19.72150 131 ft 11 kts 204°
2026-04-21 16:18 41.40674 19.72059 131 ft 12 kts 257°
2026-04-21 16:19 41.40654 19.71945 131 ft 13 kts 257°
2026-04-21 16:19 41.40633 19.71830 130 ft 9 kts 266°
2026-04-21 16:19 41.40676 19.71772 130 ft 10 kts 350°
2026-04-21 16:19 41.40752 19.71761 130 ft 11 kts 353°
2026-04-21 16:20 41.40838 19.71743 129 ft 13 kts 351°
2026-04-21 16:20 41.40931 19.71721 129 ft 14 kts 350°
2026-04-21 16:20 41.41034 19.71704 128 ft 15 kts 355°
2026-04-21 16:20 41.41166 19.71686 127 ft 21 kts 354°
2026-04-21 16:21 41.41311 19.71667 126 ft 21 kts 354°
2026-04-21 16:21 41.41457 19.71648 124 ft 21 kts 354°
2026-04-21 16:21 41.41605 19.71629 123 ft 21 kts 354°
2026-04-21 16:21 41.41754 19.71609 121 ft 21 kts 354°
2026-04-21 16:22 41.41844 19.71598 120 ft 16 kts 355°
2026-04-21 16:22 41.41947 19.71581 119 ft 4 kts 331°
2026-04-21 16:22 41.41953 19.71557 119 ft 1 kts 269°
2026-04-21 16:22 41.41951 19.71533 119 ft 3 kts 264°
2026-04-21 16:23 41.41950 19.71520 119 ft 0 kts 264°